STARLINK-33889, 63829

Orbit data source: Space-Track

STARLINK-33889, 63829 is a payload satellite owned by SpaceX/Seattle (US) in LEO that was launched on Sun, 04 May 2025 UTC via an FALCON 9 launch vehicle from the Air Force Eastern Test Range (AFETR). Payload-class satellites include a variety of spacecraft equipped with specific instruments for various scientific and technological missions. These include communications satellites like Starlink; space stations such as the ISS; scientific satellites like the Hubble; Earth observation satellites from companies like Planet Labs, Umbra, and HawkEye 360; GPS; miniature CubeSats for education and research; and military/defense satellites.

Loading next visibility...
Identifier
63829, 2025-092AB
Orbit
LEO
Last TLE update
15 hours ago
Origin
Manufacturer
SpaceX/Seattle
Mission
Operational spacecraft
Bus & Motor
STARLINK V2MO, Unknown motor
Mass
575 kg wet, ~530 kg dry
Launch date (UTC)
2025-05-04 (1 week ago)
Launch vehicle
FALCON 9
Launch site
Air Force Eastern Test Range (AFETR)
Object type
Payload
Rocket body
Debris
Shape & HBR
Unknown
Radar Cross Section
Medium (>0.1 m² and <1 m²)

Expand to show TLE details & history

TLE from 15 hours ago
0 STARLINK-33889
1 63829U 25092AB  25132.91668981 -.01079611  00000-0 -38620-2 0  9995
2 63829  43.0009  80.0403 0001626 255.4600 103.1342 15.90261494  2465
Epoch: 2025-05-12T22:00Z
Definitive object data (Epoch: 2025-05-12T22:00:01.999Z)
Latitude
-1.01218°
Longitude
-121.97037°
Altitude
301.704 km
Speed
7.729 km/s
True Right ascension
05h 15m 50s
True Declination
-1° 00' 21"
Sunlit
Object was in daylight at TLE epoch
Visualization TLE readout
Latitude
18.37979°
Longitude
-104.06775°
Altitude
305.768 km
Speed
7.728 km/s
Apparent Right ascension
07h 49m 39s
Apparent Declination
-10° 51' 22"
Sunlit
Object is in daylight
Visualization observer readout
Local Sidereal Time
21:37:49
Azimuth
46.968° ENE
Elevation
-52.35°
Doppler factor
1
Orbital elements
Apogee altitude
304.635 km
Perigee altitude
302.462 km
Semi-major axis
6,681.685 km
Eccentricity
0.0001626
Inclination
43.0009°
RAAN
80.0403°
Arg. of periapsis
255.46°
True anomaly
103.15234°
Mean anomaly
103.1342°
Eccentric anomaly
103.14327°
Mean motion
3.97387 °/min
BSTAR
-0.003862
Orbital period
90.59 mins
Loading maneuver chart data...
Loading SW <> Apogee altitude chart data...
Loading historical data...
Loading historical data...
Loading historical data...
Loading historical data...
Loading historical data...
Loading historical data...
Loading historical data...

STARLINK-33889 Visibility forecast

Observer location: undefined°, undefined°

Span
Click to sort rows by Start time (UTC) header in descending order
Start Az.
Max El. time (UTC)
Max El. Az.
Max El.
End time (UTC)
End Az.
4 mins2025-05-13 23:53:06.035Z215.673° SW2025-05-13 23:55:06.035Z125.409° SE29.932°2025-05-13 23:57:06.035Z82.916° E
|